Location: Unspecified
(0.0000°N, 0.0000°E)
Time: 18:10:13
(UTC+00:00)

ISS - Pass Details

Date: 15 January 2021
Orbit: 418 x 421 km, 51.6° (Epoch: 25 January)

Event Time Altitude Azimuth Distance (km) Brightness Sun altitude
Exits shadow 05:00:32 11° 359° (N) 1,415 -1.3 -16.0°
Maximum altitude 05:03:07 25° 54° (NE) 891 -1.8 -15.4°
Drops below altitude 10° 05:05:56 10° 112° (ESE) 1,492 0.5 -14.8°
Sets 05:08:15 0° 125° (SE) 2,357 1.7 -14.2°
